• In Lithuania
  • List of Countries
  • For 7 days
  • Water Temperature
  • Satellite Maps
  • Weather Map
  • Weather Widgets
  • user-avatar
    Login

    Hourly Weather Vesela Hirka

    Today, 28 May, Monday

    Time Temperature Precipitation Wind Pressure Humidity
    00:00 +12°C° 0 mm 3 mps 759 mmHg 78%
    01:00 +12°C° 0 mm 3 mps 759 mmHg 78%
    02:00 +11°C° 0 mm 3 mps 759 mmHg 79%
    03:00 +11°C° 0 mm 3 mps 759 mmHg 79%
    04:00 +11°C° 0 mm 3 mps 759 mmHg 78%
    05:00 +11°C° 0 mm 3 mps 759 mmHg 78%
    06:00 +14°C° 0 mm 3 mps 759 mmHg 70%
    07:00 +17°C° 0 mm 4 mps 760 mmHg 62%
    08:00 +19°C° 0 mm 5 mps 760 mmHg 55%
    09:00 +20°C° 0 mm 5 mps 760 mmHg 52%
    10:00 +21°C° 0 mm 5 mps 760 mmHg 49%
    11:00 +23°C° 0 mm 5 mps 760 mmHg 46%
    12:00 +23°C° 0 mm 5 mps 759 mmHg 46%
    13:00 +25°C° 0 mm 5 mps 759 mmHg 45%
    14:00 +25°C° 0 mm 5 mps 759 mmHg 45%
    15:00 +25°C° 0 mm 5 mps 759 mmHg 48%
    16:00 +25°C° 0 mm 4 mps 759 mmHg 51%
    17:00 +25°C° 0 mm 4 mps 758 mmHg 54%
    18:00 +22°C° 0 mm 4 mps 759 mmHg 61%
    19:00 +20°C° 0 mm 3 mps 759 mmHg 67%
    20:00 +18°C° 0 mm 3 mps 759 mmHg 74%
    21:00 +18°C° 0 mm 3 mps 759 mmHg 77%
    22:00 +17°C° 0 mm 4 mps 760 mmHg 80%
    23:00 +17°C° 0 mm 4 mps 760 mmHg 83%

    Tomorrow, 29 May, Tuesday

    Time Temperature Precipitation Wind Pressure Humidity
    00:00 +15°C° 0 mm 4 mps 760 mmHg 83%
    01:00 +15°C° 0 mm 5 mps 760 mmHg 84%
    02:00 +15°C° 0 mm 5 mps 761 mmHg 84%
    03:00 +14°C° 0 mm 5 mps 761 mmHg 81%
    04:00 +14°C° 0 mm 5 mps 761 mmHg 79%
    05:00 +13°C° 0 mm 6 mps 761 mmHg 77%
    06:00 +15°C° 0 mm 6 mps 761 mmHg 70%
    07:00 +16°C° 0 mm 6 mps 761 mmHg 64%
    08:00 +17°C° 0 mm 7 mps 761 mmHg 58%
    09:00 +18°C° 0 mm 7 mps 761 mmHg 54%
    10:00 +20°C° 0 mm 7 mps 761 mmHg 51%
    11:00 +21°C° 0 mm 7 mps 761 mmHg 47%
    12:00 +21°C° 0 mm 7 mps 761 mmHg 47%
    13:00 +22°C° 0 mm 7 mps 761 mmHg 46%
    14:00 +22°C° 0 mm 7 mps 760 mmHg 45%
    15:00 +22°C° 0 mm 6 mps 760 mmHg 48%
    16:00 +21°C° 0 mm 6 mps 760 mmHg 51%
    17:00 +21°C° 0 mm 6 mps 760 mmHg 54%
    18:00 +19°C° 0 mm 5 mps 760 mmHg 60%
    19:00 +17°C° 0 mm 4 mps 760 mmHg 66%
    20:00 +14°C° 0 mm 4 mps 760 mmHg 71%
    21:00 +14°C° 0 mm 3 mps 760 mmHg 73%
    22:00 +13°C° 0 mm 3 mps 760 mmHg 75%
    23:00 +12°C° 0 mm 3 mps 759 mmHg 77%

    Day after tomorrow, 30 May, Wednesday

    Time Temperature Precipitation Wind Pressure Humidity
    00:00 +11°C° 0 mm 3 mps 759 mmHg 77%
    01:00 +11°C° 0 mm 3 mps 759 mmHg 77%
    02:00 +10°C° 0 mm 3 mps 759 mmHg 77%
    03:00 +10°C° 0 mm 3 mps 759 mmHg 77%
    04:00 +10°C° 0 mm 3 mps 759 mmHg 76%
    05:00 +11°C° 0 mm 3 mps 759 mmHg 76%
    06:00 +13°C° 0 mm 3 mps 759 mmHg 67%
    07:00 +15°C° 0 mm 4 mps 758 mmHg 59%
    08:00 +18°C° 0 mm 4 mps 758 mmHg 50%
    09:00 +19°C° 0 mm 4 mps 758 mmHg 47%
    10:00 +21°C° 0 mm 4 mps 758 mmHg 43%
    11:00 +22°C° 0 mm 4 mps 757 mmHg 40%
    12:00 +22°C° 0 mm 4 mps 757 mmHg 39%
    13:00 +24°C° 0 mm 3 mps 756 mmHg 38%
    14:00 +25°C° 0 mm 3 mps 756 mmHg 38%
    15:00 +25°C° 0 mm 3 mps 755 mmHg 40%
    16:00 +24°C° 0 mm 3 mps 755 mmHg 41%
    17:00 +24°C° 0 mm 2 mps 754 mmHg 43%
    18:00 +21°C° 0 mm 2 mps 754 mmHg 48%
    19:00 +19°C° 0 mm 2 mps 754 mmHg 53%
    20:00 +18°C° 0 mm 1 mps 754 mmHg 58%
    21:00 +16°C° 0 mm 1 mps 754 mmHg 60%
    22:00 +16°C° 0 mm 1 mps 754 mmHg 61%
    23:00 +15°C° 0 mm 1 mps 753 mmHg 63%

    31 May, Thursday

    Time Temperature Precipitation Wind Pressure Humidity
    00:00 +14°C° 0 mm 1 mps 753 mmHg 64%
    01:00 +14°C° 0 mm 1 mps 753 mmHg 65%
    02:00 +13°C° 0 mm 0 mps 752 mmHg 67%
    03:00 +13°C° 0 mm 0 mps 752 mmHg 67%
    04:00 +14°C° 0 mm 0 mps 752 mmHg 68%
    05:00 +14°C° 0 mm 0 mps 752 mmHg 68%
    06:00 +18°C° 0 mm 1 mps 751 mmHg 63%
    07:00 +20°C° 0 mm 1 mps 751 mmHg 57%
    08:00 +22°C° 0 mm 1 mps 751 mmHg 51%
    09:00 +23°C° 0 mm 1 mps 751 mmHg 48%
    10:00 +25°C° 0 mm 1 mps 750 mmHg 45%
    11:00 +26°C° 0 mm 1 mps 750 mmHg 41%
    12:00 +26°C° 0 mm 1 mps 749 mmHg 40%
    13:00 +27°C° 0 mm 1 mps 749 mmHg 38%
    14:00 +28°C° 0 mm 1 mps 748 mmHg 37%
    15:00 +27°C° 0 mm 1 mps 748 mmHg 39%
    16:00 +27°C° 0 mm 2 mps 748 mmHg 41%
    17:00 +27°C° 0 mm 2 mps 748 mmHg 42%
    18:00 +25°C° 0 mm 1 mps 748 mmHg 48%
    19:00 +23°C° 0 mm 1 mps 748 mmHg 53%
    20:00 +21°C° 0 mm 1 mps 748 mmHg 58%
    21:00 +20°C° 0 mm 1 mps 747 mmHg 61%
    22:00 +20°C° 0 mm 1 mps 747 mmHg 64%
    23:00 +19°C° 0 mm 1 mps 747 mmHg 67%

    1 June, Friday

    Time Temperature Precipitation Wind Pressure Humidity
    00:00 +19°C° 0 mm 1 mps 747 mmHg 70%
    01:00 +18°C° 0 mm 1 mps 747 mmHg 73%
    02:00 +16°C° 0 mm 0 mps 747 mmHg 77%
    03:00 +18°C° 0 mm 1 mps 747 mmHg 77%
    04:00 +19°C° 0 mm 1 mps 747 mmHg 78%
    05:00 +19°C° 0 mm 1 mps 747 mmHg 79%
    06:00 +20°C° 0.2 mm 1 mps 747 mmHg 75%
    07:00 +22°C° 0.2 mm 1 mps 747 mmHg 70%
    08:00 +24°C° 0.2 mm 2 mps 747 mmHg 66%
    09:00 +24°C° 0.8 mm 2 mps 747 mmHg 64%
    10:00 +24°C° 0.8 mm 3 mps 747 mmHg 62%
    11:00 +25°C° 0.8 mm 4 mps 747 mmHg 61%
    12:00 +23°C° 0.6 mm 5 mps 747 mmHg 64%
    13:00 +22°C° 0.6 mm 6 mps 747 mmHg 67%
    14:00 +21°C° 0.6 mm 6 mps 747 mmHg 70%
    15:00 +20°C° 0.5 mm 7 mps 747 mmHg 73%
    16:00 +18°C° 0.5 mm 7 mps 748 mmHg 76%
    17:00 +17°C° 0.5 mm 8 mps 748 mmHg 79%
    18:00 +16°C° 0.2 mm 8 mps 748 mmHg 81%
    19:00 +13°C° 0.2 mm 8 mps 748 mmHg 84%
    20:00 +12°C° 0.2 mm 8 mps 749 mmHg 86%
    21:00 +12°C° 0.5 mm 7 mps 749 mmHg 87%
    22:00 +12°C° 0.5 mm 7 mps 749 mmHg 88%
    23:00 +11°C° 0.5 mm 7 mps 749 mmHg 89%

    2 June, Saturday

    Time Temperature Precipitation Wind Pressure Humidity
    00:00 +11°C° 1.7 mm 7 mps 749 mmHg 90%
    01:00 +11°C° 1.7 mm 7 mps 749 mmHg 91%
    02:00 +11°C° 1.7 mm 7 mps 749 mmHg 92%
    03:00 +10°C° 2.2 mm 7 mps 749 mmHg 92%
    04:00 +10°C° 2.2 mm 7 mps 749 mmHg 92%
    05:00 +9°C° 2.2 mm 8 mps 749 mmHg 92%
    06:00 +10°C° 1.1 mm 7 mps 749 mmHg 91%
    07:00 +10°C° 1.1 mm 7 mps 749 mmHg 91%
    08:00 +10°C° 1.1 mm 6 mps 749 mmHg 91%
    09:00 +11°C° 0.6 mm 6 mps 750 mmHg 90%
    10:00 +11°C° 0.6 mm 6 mps 750 mmHg 90%
    11:00 +13°C° 0.6 mm 6 mps 750 mmHg 89%
    12:00 +13°C° 0.6 mm 6 mps 750 mmHg 88%
    13:00 +14°C° 0.6 mm 7 mps 750 mmHg 88%
    14:00 +15°C° 0.6 mm 7 mps 750 mmHg 87%
    15:00 +15°C° 0.4 mm 7 mps 750 mmHg 86%
    16:00 +15°C° 0.4 mm 6 mps 750 mmHg 86%
    17:00 +16°C° 0.4 mm 6 mps 750 mmHg 85%
    18:00 +15°C° 0.2 mm 6 mps 751 mmHg 85%
    19:00 +15°C° 0.2 mm 6 mps 751 mmHg 86%
    20:00 +15°C° 0.2 mm 6 mps 751 mmHg 86%
    21:00 +15°C° 0.2 mm 6 mps 752 mmHg 86%
    22:00 +14°C° 0.2 mm 6 mps 752 mmHg 87%
    23:00 +14°C° 0.2 mm 5 mps 752 mmHg 87%
    Show more